Wind_Speed
21 21 22 23 24 24 23 22 22 21 20 21 21 21 21 21 20 20 19 19 18 18 18 17 17 16 16 16 16 16 15 15 15 14 14 13 13 13 12 12 12 12 12 11 11 10 10 10 9
21 22 23 24 25 25 23 23 23 22 22 23 23 23 22 22 21 20 20 20 20 20 20 19 19 18 17 18 17 17 17 16 16 16 16 15 15 15 15 14 14 14 14 13 13 13 12 12 12
22 23 24 25 25 24 23 24 25 25 24 24 24 24 24 23 22 21 21 21 20 20 21 21 20 20 19 19 19 18 18 17 17 17 17 16 16 16 16 16 16 16 16 15 15 15 14 14 14
22 23 25 25 24 23 23 25 26 27 26 26 25 25 25 24 24 23 22 21 21 21 22 22 22 21 21 20 20 19 19 19 19 19 18 18 18 18 18 18 18 18 17 17 17 16 16 16 16
23 24 25 25 24 24 24 26 27 28 28 27 26 25 25 25 24 24 23 23 22 22 22 22 22 22 22 21 20 21 20 20 21 21 20 20 20 20 20 20 20 19 19 19 18 18 18 18 18
25 25 25 24 23 24 25 27 27 27 28 28 28 27 27 26 26 25 25 24 24 23 23 23 23 22 23 23 22 22 22 22 22 21 21 21 21 22 22 21 21 21 21 20 20 19 20 20 20
26 26 25 24 24 24 25 27 28 29 29 29 29 28 28 28 27 26 25 25 24 23 23 23 24 24 24 24 24 23 22 23 23 23 23 23 23 23 23 23 23 22 22 22 21 21 21 21 21
27 27 26 25 25 25 26 27 28 30 31 30 30 30 29 29 29 28 27 26 26 25 25 25 24 24 24 24 25 25 24 24 25 25 25 25 25 25 25 25 24 24 24 24 23 23 24 24 23
27 27 27 26 26 26 27 28 29 31 32 32 31 31 31 30 30 29 29 28 28 27 27 26 25 25 25 26 26 26 26 26 26 26 26 26 26 26 26 26 26 26 26 26 26 26 26 26 25
27 28 27 27 27 27 27 29 30 31 32 32 32 32 32 32 31 31 31 30 30 29 29 29 28 27 26 27 27 28 27 27 27 27 27 27 27 27 27 28 28 28 28 27 27 28 28 28 28
28 28 28 28 28 28 29 29 30 30 31 32 33 32 32 33 32 32 32 31 31 31 30 30 30 29 29 29 29 30 29 28 28 28 28 28 28 28 28 28 29 30 30 30 29 30 30 31 31
28 29 29 29 29 30 30 30 30 30 31 33 34 34 33 33 33 33 33 33 33 32 32 32 31 31 31 31 32 32 31 30 29 29 30 30 30 30 30 30 31 31 32 32 32 32 32 32 32
29 29 29 30 30 30 30 30 30 30 31 32 33 33 33 34 34 34 34 34 34 34 33 33 33 32 32 32 33 33 33 32 31 31 32 32 33 33 33 32 33 33 33 33 33 34 34 33 34
29 29 30 30 30 31 30 30 30 30 31 31 32 32 33 34 35 36 36 35 35 35 35 35 34 33 33 33 33 33 34 34 34 34 34 34 34 34 35 35 35 35 36 36 36 36 36 36 36
29 30 30 31 31 31 31 31 31 31 32 31 32 33 34 34 35 36 36 36 37 36 36 36 35 35 34 35 35 35 35 36 36 36 36 36 36 36 36 36 36 37 37 38 38 38 39 38 38
29 30 31 31 31 32 32 31 32 33 33 33 33 33 34 34 35 36 37 37 37 37 37 37 37 36 36 37 37 37 37 37 38 38 38 38 38 38 39 39 39 39 39 39 39 39 39 39 39
30 31 31 31 32 32 33 33 33 34 35 35 34 34 35 35 35 36 37 38 38 38 38 38 38 38 38 39 39 40 40 40 40 40 40 40 40 40 41 41 41 40 40 40 40 40 40 40 40
29 30 30 31 32 33 34 34 34 35 35 36 36 36 36 36 36 37 38 38 39 40 39 39 39 39 39 39 40 41 41 41 42 42 42 42 42 42 43 43 42 42 42 42 41 42 42 42 42
30 31 31 32 33 34 35 35 36 36 37 37 37 38 38 38 38 38 38 39 40 40 41 41 40 41 41 41 42 43 43 43 43 44 44 44 44 44 44 44 44 43 43 43 43 43 43 43 43
30 31 32 33 34 35 36 36 36 37 37 38 38 39 40 40 40 41 41 41 41 41 42 42 41 42 43 43 44 45 45 45 45 45 45 45 45 46 46 45 45 45 45 45 45 45 45 45 45
30 31 32 33 35 36 38 38 37 37 38 38 39 39 40 41 41 41 42 42 43 43 43 43 43 43 44 44 46 46 47 47 47 46 46 46 46 47 47 47 46 46 46 46 47 46 46 47 47
29 30 32 33 34 36 37 39 37 38 38 38 38 39 40 41 41 42 42 43 43 44 44 44 45 45 45 45 46 47 48 48 48 48 48 48 48 48 47 47 48 48 48 48 48 48 48 48 48
29 30 32 33 34 36 37 40 38 37 37 37 37 38 39 40 41 41 42 43 43 44 44 45 45 46 46 46 47 48 49 49 50 50 50 50 50 50 50 49 49 50 50 50 50 50 50 49 49
29 30 31 32 34 36 35 38 38 37 36 36 37 37 38 39 41 42 43 43 43 44 45 46 46 47 47 48 48 49 49 50 51 51 52 51 52 52 52 52 52 52 52 51 51 51 51 51 50
30 30 31 33 34 35 35 37 37 36 36 37 38 38 39 40 42 43 44 44 44 45 46 46 47 48 48 49 49 50 51 51 52 52 53 53 53 54 54 54 54 53 53 53 52 52 52 52 51
30 31 32 34 35 35 34 36 35 35 35 36 37 38 39 40 42 43 44 45 46 46 46 47 48 49 50 50 51 50 51 52 52 52 53 54 54 54 54 55 55 54 54 54 53 53 53 53 52
30 31 32 35 36 37 36 35 34 33 34 35 36 37 39 40 41 42 44 44 45 46 47 48 49 50 50 51 51 51 52 51 52 52 53 53 54 54 55 55 55 55 55 54 54 54 53 52 53
31 32 33 34 37 38 38 35 34 32 33 35 37 38 39 40 41 42 43 44 45 46 47 48 49 49 50 50 51 52 52 52 52 52 53 53 53 54 55 55 55 55 55 55 54 54 54 54 54
31 31 33 35 37 39 39 36 35 35 35 36 37 39 40 41 42 42 43 45 46 47 47 48 49 49 50 50 50 51 51 52 52 52 53 53 53 54 55 55 55 55 55 55 55 55 55 55 55
32 32 33 35 38 39 41 40 37 37 37 38 38 39 41 42 42 43 45 45 46 47 48 49 49 49 50 51 51 51 51 52 53 53 53 53 53 54 54 55 55 54 54 55 55 56 57 56 56
Wind_Direction
240 242 240 239 240 240 240 239 240 241 241 240 240 240 241 243 243 242 241 240 240 240 243 243 242 242 241 241 244 246 249 251 253 255 256 257 257 259 259 259 260 261 262 263 261 262 263 263 263
242 244 243 242 241 242 241 242 242 242 243 242 242 241 242 243 244 244 243 244 242 242 243 244 244 244 244 244 244 247 250 252 254 254 255 257 257 258 258 260 260 260 261 263 260 259 261 262 262
245 244 244 243 243 244 243 242 243 241 242 244 243 243 242 242 243 243 244 245 244 245 244 244 246 246 246 246 247 248 250 251 253 254 255 257 257 258 259 260 261 260 261 262 261 259 260 261 261
247 246 245 244 244 244 244 243 243 243 241 243 243 244 244 244 243 242 243 244 246 246 246 246 246 246 247 247 248 249 250 251 253 254 255 256 257 257 258 260 261 260 261 262 262 261 261 262 262
249 248 247 246 246 246 246 246 246 244 242 243 244 244 243 243 243 243 243 244 246 248 248 246 245 246 247 247 248 248 251 252 253 253 255 256 257 258 258 260 260 260 261 262 262 262 262 263 263
251 251 250 249 247 246 246 246 247 247 246 245 242 242 243 244 244 244 244 244 245 247 248 246 245 246 248 248 250 252 252 252 253 254 256 257 258 259 260 260 260 259 260 260 261 262 262 262 263
250 252 252 250 248 248 247 247 247 247 247 246 244 244 244 243 243 244 244 244 244 245 247 247 246 248 249 250 252 253 254 254 254 255 256 258 258 259 260 260 259 259 259 258 259 260 262 262 263
251 253 253 252 251 251 249 249 248 248 248 248 246 245 244 244 244 244 243 243 243 244 246 247 247 248 248 250 251 253 254 255 255 256 256 257 259 259 259 259 259 259 258 258 259 261 262 262 263
252 253 254 254 254 252 251 250 249 249 248 248 247 246 244 244 244 244 244 244 246 247 248 248 248 248 249 250 252 254 256 256 257 257 256 257 259 259 258 258 259 260 260 259 259 260 261 262 262
253 254 255 255 255 254 252 251 250 249 249 248 246 246 245 244 244 244 243 244 246 247 249 249 250 250 251 252 253 254 256 257 258 258 258 259 260 260 259 259 259 259 259 259 259 260 261 262 262
255 255 256 256 255 254 252 250 249 249 249 248 247 245 244 244 244 244 244 245 247 248 249 251 251 251 252 253 255 255 257 257 258 259 259 259 260 261 260 260 260 260 260 261 260 260 261 263 263
257 256 255 256 255 253 252 250 249 249 250 249 248 246 244 244 244 244 245 246 247 249 250 251 251 252 253 254 255 256 256 258 259 260 260 260 260 260 261 260 261 262 262 262 263 264 263 263 264
258 257 256 256 256 254 252 251 250 250 249 250 249 247 246 244 244 244 245 246 248 249 250 251 251 252 254 254 254 255 256 256 257 259 261 261 260 260 260 261 262 263 263 263 263 264 263 263 263
259 258 257 257 256 254 253 251 251 251 251 251 249 248 247 246 245 245 245 246 247 249 250 251 251 251 252 254 255 256 256 257 259 259 260 261 261 262 262 262 262 262 263 264 264 265 265 264 264
259 258 257 256 255 254 253 252 252 252 252 251 251 250 249 248 247 247 247 247 249 250 250 252 251 251 252 254 256 257 258 258 259 259 260 262 262 262 262 263 264 263 263 264 265 266 267 266 265
261 260 258 256 255 255 254 253 253 252 252 252 251 251 251 250 249 248 248 248 248 249 250 251 252 253 253 255 256 257 258 259 259 260 261 262 263 263 263 263 264 264 263 264 264 266 267 266 266
263 262 261 258 256 256 256 255 253 254 253 253 252 252 252 251 251 250 250 249 249 249 250 253 254 255 256 256 257 258 259 260 261 261 262 262 263 264 264 264 264 264 264 264 265 266 266 266 267
266 265 263 261 259 257 256 256 255 254 253 253 253 253 253 252 252 251 251 251 251 251 252 253 255 256 257 258 258 259 260 260 260 262 263 264 264 264 265 265 264 264 265 265 266 267 267 267 267
267 265 263 262 261 259 258 257 255 254 254 255 255 255 254 253 253 252 252 254 253 253 253 254 255 257 257 258 259 259 260 260 260 262 262 263 264 264 264 265 265 264 265 265 266 266 267 268 267
269 267 265 263 263 261 260 257 256 255 257 257 257 256 255 254 253 253 253 255 254 255 255 255 256 257 257 258 259 260 260 260 260 261 261 262 262 263 264 265 265 266 266 266 267 267 268 268 268
271 270 268 267 265 263 262 260 258 257 258 258 259 259 256 255 255 254 254 255 255 256 257 257 257 258 258 258 259 260 260 261 261 261 261 262 262 263 263 264 265 266 267 268 268 268 269 269 268
273 273 271 269 268 266 266 265 260 260 261 260 260 260 258 257 256 256 255 256 256 256 257 257 257 258 259 259 260 260 261 261 261 262 262 262 262 262 263 263 264 266 267 267 269 270 270 270 269
276 276 273 271 270 268 267 267 264 262 263 262 262 262 260 259 258 258 258 258 258 258 258 257 257 258 259 260 261 261 262 262 262 262 263 263 263 263 263 263 264 265 267 268 268 270 271 271 270
279 277 275 273 272 270 269 269 266 264 264 263 263 264 263 260 259 260 260 260 260 259 259 259 259 259 260 261 261 262 262 262 262 262 263 263 263 263 263 263 264 265 266 268 269 270 270 270 269
279 279 277 275 274 273 272 270 270 267 266 265 264 265 265 263 261 262 262 263 263 261 261 260 260 261 261 262 262 262 263 263 263 262 263 263 263 264 264 263 264 265 265 267 268 268 268 268 268
280 278 277 277 277 276 275 274 273 270 269 268 267 268 267 265 264 264 264 264 264 263 262 262 262 262 262 262 262 262 263 263 263 264 264 263 263 263 264 264 264 264 265 265 266 266 267 267 267
282 278 277 277 277 277 276 277 276 273 271 270 270 270 269 268 267 266 266 266 266 266 265 265 264 264 264 263 263 263 264 264 264 264 264 264 264 263 264 264 264 264 264 264 265 265 266 267 266
282 281 279 276 277 278 278 279 279 277 275 274 272 271 270 270 269 269 268 267 267 267 267 266 266 265 265 265 264 264 265 265 264 265 265 265 265 264 263 263 264 264 264 265 265 265 265 266 266
283 280 279 277 276 278 280 280 280 280 278 276 274 272 272 271 271 270 270 269 269 268 268 268 267 267 266 265 265 265 264 265 265 265 265 266 266 265 264 264 264 264 265 266 265 265 265 265 266
284 283 280 278 277 278 280 282 282 280 278 277 275 274 273 273 273 272 270 270 270 269 269 268 268 267 267 267 267 266 265 265 265 265 265 265 266 266 266 265 265 265 265 266 266 266 266 266 266
Height
5793 5795 5797 5798 5800 5802 5804 5807 5809 5811 5813 5815 5816 5818 5820 5822 5824 5828 5828 5827 5829 5830 5831 5833 5834 5835 5836 5837 5838 5839 5840 5841 5842 5843 5844 5845 5846 5846 5847 5848 5849 5850 5850 5851 5852 5853 5853 5854 5855
5789 5791 5793 5794 5796 5798 5801 5803 5805 5807 5809 5810 5812 5814 5816 5817 5819 5822 5823 5824 5825 5827 5828 5829 5831 5832 5833 5834 5835 5836 5838 5839 5840 5840 5841 5842 5843 5844 5845 5846 5847 5847 5848 5849 5850 5850 5851 5852 5853
5785 5787 5789 5790 5791 5794 5797 5799 5801 5802 5805 5806 5808 5810 5812 5814 5815 5817 5819 5820 5822 5823 5824 5826 5827 5828 5829 5831 5832 5833 5834 5835 5836 5837 5838 5839 5840 5841 5842 5843 5843 5844 5845 5846 5847 5848 5848 5849 5850
5781 5783 5784 5786 5788 5791 5793 5794 5796 5798 5800 5802 5804 5806 5808 5810 5811 5813 5815 5816 5818 5819 5820 5822 5823 5825 5826 5827 5828 5829 5830 5831 5832 5833 5834 5835 5836 5837 5838 5839 5840 5841 5842 5843 5844 5845 5845 5846 5847
5776 5778 5779 5781 5784 5786 5788 5789 5791 5793 5795 5797 5799 5801 5803 5805 5806 5808 5810 5812 5813 5815 5816 5817 5819 5820 5821 5823 5824 5825 5826 5827 5828 5830 5831 5831 5832 5833 5834 5835 5836 5837 5838 5839 5840 5841 5842 5842 5843
5772 5773 5775 5777 5779 5781 5783 5784 5785 5788 5790 5792 5794 5796 5798 5800 5802 5804 5806 5807 5809 5810 5811 5813 5814 5816 5817 5818 5819 5821 5822 5823 5824 5825 5826 5827 5828 5829 5830 5831 5832 5833 5834 5835 5836 5837 5838 5838 5839
5767 5768 5769 5772 5774 5776 5777 5778 5780 5782 5784 5786 5788 5790 5792 5795 5797 5798 5800 5802 5804 5805 5807 5808 5809 5811 5812 5813 5815 5816 5817 5818 5819 5820 5821 5822 5823 5824 5825 5826 5827 5829 5830 5831 5831 5832 5833 5834 5835
5761 5763 5764 5766 5768 5771 5772 5773 5774 5776 5778 5780 5782 5784 5786 5789 5791 5793 5795 5796 5798 5800 5802 5803 5804 5806 5807 5808 5810 5811 5812 5813 5814 5815 5816 5817 5818 5819 5820 5821 5823 5824 5825 5826 5827 5827 5828 5829 5830
5755 5758 5759 5761 5763 5765 5766 5767 5768 5769 5771 5773 5776 5778 5780 5782 5784 5787 5789 5791 5793 5794 5796 5798 5799 5800 5802 5803 5804 5806 5807 5808 5809 5810 5811 5812 5813 5814 5815 5816 5817 5818 5819 5820 5821 5822 5823 5824 5825
5750 5751 5753 5755 5756 5758 5759 5759 5761 5762 5764 5766 5768 5770 5773 5775 5778 5780 5782 5785 5787 5789 5790 5792 5793 5795 5796 5798 5799 5800 5801 5802 5803 5804 5805 5806 5807 5808 5809 5810 5811 5812 5813 5814 5815 5816 5817 5818 5819
5743 5745 5747 5748 5749 5750 5751 5752 5753 5755 5757 5759 5761 5763 5765 5768 5770 5773 5776 5778 5780 5782 5784 5785 5787 5788 5790 5791 5793 5794 5795 5796 5797 5798 5799 5799 5800 5801 5803 5804 5805 5806 5807 5808 5809 5809 5810 5811 5812
5737 5738 5739 5741 5742 5743 5744 5745 5746 5748 5750 5751 5753 5755 5758 5760 5763 5766 5768 5771 5773 5775 5777 5779 5780 5781 5783 5785 5786 5787 5788 5789 5790 5791 5792 5793 5794 5795 5796 5797 5798 5799 5800 5801 5802 5802 5803 5804 5805
5730 5732 5732 5733 5734 5735 5736 5738 5739 5741 5742 5743 5745 5748 5750 5753 5755 5758 5760 5763 5765 5768 5770 5771 5773 5774 5776 5777 5779 5780 5781 5782 5783 5784 5785 5786 5787 5788 5789 5790 5791 5792 5792 5793 5794 5795 5795 5796 5797
5724 5724 5725 5726 5727 5728 5729 5731 5733 5734 5735 5736 5738 5740 5743 5745 5747 5750 5753 5755 5757 5759 5761 5763 5765 5766 5768 5770 5771 5772 5774 5775 5776 5776 5777 5778 5779 5780 5781 5782 5783 5783 5784 5785 5786 5787 5787 5788 5789
5717 5718 5719 5719 5720 5721 5722 5724 5726 5727 5728 5730 5731 5733 5735 5737 5740 5742 5745 5747 5749 5751 5753 5755 5757 5758 5760 5762 5763 5764 5765 5767 5768 5768 5769 5770 5771 5772 5773 5774 5775 5775 5776 5777 5777 5778 5779 5779 5780
5710 5710 5711 5713 5713 5714 5716 5718 5719 5719 5721 5723 5724 5726 5728 5730 5732 5734 5736 5738 5740 5743 5745 5747 5748 5750 5752 5753 5754 5756 5757 5758 5759 5760 5761 5761 5762 5763 5764 5764 5765 5766 5767 5767 5768 5769 5769 5770 5771
5703 5703 5704 5706 5706 5707 5708 5710 5712 5712 5713 5715 5717 5718 5720 5722 5724 5726 5727 5729 5731 5734 5736 5738 5740 5741 5743 5744 5745 5747 5748 5749 5750 5751 5752 5752 5753 5754 5754 5755 5756 5756 5757 5758 5758 5759 5760 5760 5761
5697 5697 5697 5698 5699 5699 5700 5703 5704 5704 5705 5707 5709 5710 5712 5714 5715 5717 5719 5720 5722 5725 5727 5729 5730 5732 5733 5735 5736 5737 5738 5739 5740 5741 5742 5743 5743 5744 5744 5745 5746 5746 5747 5747 5748 5749 5749 5750 5751
5689 5689 5689 5690 5690 5691 5692 5694 5696 5696 5698 5699 5701 5702 5703 5705 5706 5708 5710 5711 5712 5715 5717 5719 5721 5722 5724 5725 5726 5727 5728 5729 5730 5731 5732 5733 5733 5733 5734 5734 5735 5736 5736 5737 5737 5738 5738 5739 5739
5681 5681 5682 5682 5682 5682 5683 5686 5687 5688 5689 5691 5692 5693 5694 5696 5697 5699 5700 5702 5703 5705 5707 5709 5710 5712 5713 5714 5715 5717 5717 5718 5719 5720 5721 5721 5722 5722 5723 5724 5724 5724 5725 5726 5726 5727 5727 5728 5728
5674 5674 5674 5674 5674 5673 5674 5677 5679 5680 5681 5682 5683 5684 5685 5686 5688 5689 5690 5691 5693 5695 5696 5698 5699 5700 5702 5703 5704 5705 5706 5707 5708 5709 5710 5710 5710 5710 5711 5712 5712 5713 5713 5714 5714 5715 5715 5716 5716
5667 5667 5666 5665 5665 5665 5666 5666 5671 5671 5672 5673 5674 5674 5675 5676 5677 5679 5680 5681 5682 5684 5685 5687 5688 5689 5690 5691 5693 5694 5695 5695 5696 5697 5697 5698 5698 5698 5699 5699 5700 5701 5701 5702 5702 5702 5703 5703 5703
5660 5659 5658 5657 5656 5656 5657 5656 5661 5662 5663 5664 5665 5665 5665 5666 5667 5668 5669 5670 5671 5673 5674 5675 5676 5677 5678 5679 5680 5681 5682 5683 5683 5684 5685 5685 5685 5686 5686 5686 5687 5688 5688 5688 5689 5689 5690 5690 5690
5653 5652 5651 5649 5648 5649 5650 5648 5651 5653 5654 5655 5655 5655 5655 5656 5656 5657 5658 5659 5660 5661 5662 5663 5664 5665 5666 5667 5667 5668 5669 5669 5670 5671 5671 5672 5672 5672 5673 5673 5674 5674 5674 5675 5675 5675 5676 5676 5676
5646 5645 5643 5641 5640 5641 5641 5640 5643 5645 5645 5645 5645 5644 5644 5645 5646 5646 5647 5647 5648 5649 5650 5651 5652 5653 5653 5654 5654 5655 5655 5655 5656 5657 5657 5658 5658 5659 5659 5659 5660 5660 5661 5661 5661 5661 5662 5662 5663
5639 5638 5637 5634 5633 5633 5632 5632 5636 5636 5635 5635 5635 5634 5634 5634 5634 5634 5635 5635 5636 5637 5638 5638 5639 5640 5640 5641 5641 5641 5641 5642 5642 5642 5643 5643 5644 5644 5644 5645 5645 5646 5646 5647 5647 5647 5648 5648 5649
5632 5630 5630 5627 5624 5624 5624 5625 5627 5627 5626 5626 5625 5625 5624 5624 5624 5624 5624 5624 5625 5625 5625 5626 5626 5626 5627 5627 5627 5627 5627 5628 5628 5628 5628 5628 5629 5629 5630 5630 5630 5631 5631 5632 5632 5633 5633 5634 5634
5625 5623 5621 5619 5616 5614 5615 5616 5618 5618 5617 5616 5616 5615 5614 5614 5613 5613 5613 5613 5613 5613 5613 5613 5613 5613 5613 5613 5613 5613 5613 5613 5613 5613 5614 5614 5614 5614 5615 5615 5615 5616 5616 5617 5617 5618 5618 5619 5619
5617 5615 5613 5610 5609 5607 5605 5611 5609 5609 5607 5606 5605 5604 5603 5603 5603 5602 5601 5601 5600 5600 5600 5600 5599 5599 5599 5599 5599 5599 5599 5599 5598 5599 5599 5599 5599 5599 5599 5599 5600 5601 5601 5601 5602 5603 5603 5604 5604
5608 5607 5605 5603 5601 5599 5597 5602 5600 5599 5597 5596 5595 5593 5592 5591 5591 5590 5589 5589 5588 5587 5587 5587 5586 5586 5586 5585 5585 5584 5584 5584 5584 5584 5584 5584 5584 5584 5584 5585 5585 5585 5586 5586 5586 5587 5587 5588 5588